Regional Weather Roundup
Issued by NWS Albany, NY

Home | Current Version | Previous Version | Text Only | Print | Product List | Glossary On
Versions: 1 2 3 4 5 6 7 8 9 10 11 12 13 14 15 16 17 18 19 20 21 22 23 24 25 26 27
000
ASUS41 KALY 221710
RWRALY

NEW YORK STATE HOURLY WEATHER ROUNDUP
NATIONAL WEATHER SERVICE ALBANY NY
100 PM EDT MON MAY 22 2017

NOTE: "FAIR" INDICATES FEW OR NO CLOUDS BELOW 12,000 FEET WITH NO
SIGNIFICANT WEATHER AND/OR NO OBSTRUCTIONS TO VISIBILITY.

NYZ032-033-038>043-046>054-057>066-NYZ062>081-082-084-221800-
EAST


CITY           SKY/WX    TMP DP  RH WIND       PRES   REMARKS
ALBANY         CLOUDY    60  49  66 S18G28    30.03F
GLENS FALLS    NOT AVBL
POUGHKEEPSIE   CLOUDY    58  50  75 SE6       30.06F
MONTGOMERY     CLOUDY    58  51  78 CALM      30.07F
WHITE PLAINS   LGT RAIN  54  53  97 E6        30.08F FOG
ISLIP          LGT RAIN  55  55 100 SE12      30.09F FOG
NEW YORK CITY  LGT RAIN  60  55  83 E7        30.07F
CENTRAL PARK   CLOUDY    57  56  96 VRB3      30.11S
$$

NYZ005>009-017-018-044>046-055-056-221800-
CENTRAL


CITY           SKY/WX    TMP DP  RH WIND       PRES   REMARKS
FULTON         CLOUDY    58  56  93 VRB3      29.93F
SYRACUSE       RAIN      59  58  96 SE6       29.93F FOG
ROME           RAIN      53  52  96 E12       29.99S FOG
ELMIRA         CLOUDY    62  56  80 SW5       29.96F
BINGHAMTON     LGT RAIN  56  55  97 S10       29.98F
MONTICELLO     CLOUDY    54  54 100 E5        30.07F
$$

NYZ026>034-041>043-087-221800-
NORTH


CITY           SKY/WX    TMP DP  RH WIND       PRES   REMARKS
WATERTOWN      CLOUDY    59  55  87 VRB7      29.91S
FORT DRUM      NOT AVBL
OGDENSBURG     CLOUDY    61  54  77 S9        29.91S
MASSENA        CLOUDY    60  57  89 CALM      29.92F
SARANAC LAKE   RAIN      51  51 100 CALM      29.93F FOG
PLATTSBURGH    CLOUDY    51  47  86 SE15G21   29.98F
$$

NYZ001>004-010>016-019>021-085-221800-
WEST


CITY           SKY/WX    TMP DP  RH WIND       PRES   REMARKS
NIAGARA FALLS  CLOUDY    63  46  54 SW23G33   29.95R
BUFFALO        PTSUNNY   56  45  66 SW25G32   29.98R
DUNKIRK        CLOUDY    56  44  64 SW24G36   30.02R
JAMESTOWN      CLOUDY    52  45  76 W14G20    30.01F
WELLSVILLE     PTSUNNY   63  56  78 SW9       29.99S
ROCHESTER      PTSUNNY   65  50  58 W21G36    29.94R
PENN YAN       CLOUDY    65  56  72 SW13      29.94F
$$

             KEY
       WCI = WIND CHILL INDEX
       VSB = VISIBILITY
       HX  = HEAT INDEX
$$




USA.gov is the U.S. government's official web portal to all federal, state and local government web resources and services.